"Pseudo-MPEC" for P11JDFD

Created 2023 Sep 23 12:22:17 UT using Find_Orb

Click here for an explanation of pseudo-MPECs

 
 Astrometry: 
     P11JDFD* C2023 09 150*aaAstrometryek.t$`BMv0)Fredacted;O);`6DBN`Nrf_V(tGF51
     P11JDFD  C2023 09 15E\AJv=wrw-UC6_^clickwu]Sre9F7Z_mb`A/+#*USHRE9[hereiPF51
     P11JDFD  C2023 09 15@''Zh*s4forA-tioZ0XehcAA1MG0gexplanation)S=#5xs-Xa7+F51

Station data:
(F51) Pan-STARRS 1, Haleakala  (N20.707234 W156.255910)  US/Hawaii.
   Observers J. Bulger, T. Lowe, A. Schultz, M. Willman. Measurers K.
   Chambers, S. Chastel, T. de Boer, L. Denneau, J. Fairlamb, H. Flewelling,
   M. Huber, C.-C. Lin, E. Magnier, Y. Ramanjooloo, R. Wainscoat, R. Weryk.
   1.8-m Ritchey-Chrétien + CCD.

Orbital elements:  P11JDFD
   Perihelion 2024 Jul 14.17420 +/- 282 TT =  4:10:50 (JD 2460505.67420)
Epoch 2023 Sep 15.0 TT = JDT 2460202.5   Earth MOID: 0.7351      AutoNEOCP
M 261.93380994 +/- 80               (J2000 ecliptic)
n   0.32346482 +/- 0.228            Peri.   89.87623 +/- 70
a   2.10176750 +/- 0.987            Node    22.43609 +/- 51
e   0.2975446 +/- 0.257             Incl.   29.12512 +/- 31
P   3.05                   H 18.69  G  0.15   U 11.8  SR
q 1.47639785 +/- 0.901    Q 2.72713714 +/- 40.8
From 3 observations 2023 Sept. 15 (40.0 min); mean residual 0".10
Residuals in arcseconds: 
230915 F51  .10-  .08+    230915 F51  .14+  .12-    230915 F51  .05-  .04+    

Ephemerides (geocentric):
Date (UTC) HH   RA             Dec           delta  r     elong  mag " sig PA
---- --------  ------------   ------------  ------ ------ -----  --- --------
2023 09 23 12  23 39 48.604   -33 19 10.53  1.4249 2.3280 146.4 22.1 251'  19
2023 09 23 13  23 39 44.325   -33 18 59.58  1.4250 2.3279 146.4 22.1 301'  19
2023 09 23 14  23 39 40.047   -33 18 48.59  1.4250 2.3278 146.4 22.1 364'  20
2023 09 23 15  23 39 35.769   -33 18 37.55  1.4250 2.3277 146.3 22.1 443'  21
2023 09 23 16  23 39 31.493   -33 18 26.46  1.4250 2.3275 146.3 22.1 533'  24
2023 09 23 17  23 39 27.217   -33 18 15.33  1.4250 2.3274 146.3 22.1 629'  29
2023 09 23 18  23 39 22.942   -33 18 04.15  1.4250 2.3273 146.3 22.1 727'  36
2023 09 23 19  23 39 18.669   -33 17 52.92  1.4250 2.3272 146.3 22.1 814'  43
2023 09 23 20  23 39 14.396   -33 17 41.65  1.4250 2.3270 146.2 22.1 874'  48
2023 09 23 21  23 39 10.124   -33 17 30.33  1.4250 2.3269 146.2 22.1 908'  52
2023 09 23 22  23 39 05.852   -33 17 18.96  1.4250 2.3268 146.2 22.1 927'  54
2023 09 23 23  23 39 01.582   -33 17 07.55  1.4251 2.3267 146.2 22.1 939'  56
2023 09 24 00  23 38 57.313   -33 16 56.10  1.4251 2.3266 146.2 22.1 947'  57
2023 09 24 01  23 38 53.045   -33 16 44.59  1.4251 2.3264 146.1 22.1 952'  58
2023 09 24 02  23 38 48.777   -33 16 33.04  1.4251 2.3263 146.1 22.1 956'  59
2023 09 24 03  23 38 44.511   -33 16 21.45  1.4251 2.3262 146.1 22.1 958'  60
2023 09 24 04  23 38 40.246   -33 16 09.80  1.4251 2.3261 146.1 22.1 960'  60
2023 09 24 05  23 38 35.981   -33 15 58.12  1.4251 2.3259 146.0 22.1 962'  61
2023 09 24 06  23 38 31.718   -33 15 46.38  1.4252 2.3258 146.0 22.1 963'  61
2023 09 24 07  23 38 27.455   -33 15 34.60  1.4252 2.3257 146.0 22.1 964'  62
2023 09 24 08  23 38 23.194   -33 15 22.77  1.4252 2.3256 146.0 22.1 965'  62
2023 09 24 09  23 38 18.934   -33 15 10.90  1.4252 2.3254 146.0 22.1 966'  62
2023 09 24 10  23 38 14.674   -33 14 58.98  1.4252 2.3253 145.9 22.1 967'  63
2023 09 24 11  23 38 10.416   -33 14 47.01  1.4252 2.3252 145.9 22.1 967'  63
2023 09 24 12  23 38 06.158   -33 14 35.00  1.4253 2.3251 145.9 22.1 968'  63
2023 09 24 13  23 38 01.902   -33 14 22.94  1.4253 2.3249 145.9 22.1 968'  63
2023 09 24 14  23 37 57.647   -33 14 10.84  1.4253 2.3248 145.9 22.1 969'  63
2023 09 24 15  23 37 53.393   -33 13 58.69  1.4253 2.3247 145.8 22.1 969'  64
2023 09 24 16  23 37 49.140   -33 13 46.49  1.4253 2.3246 145.8 22.1 970'  64
2023 09 24 17  23 37 44.888   -33 13 34.25  1.4254 2.3244 145.8 22.1 970'  64
2023 09 24 18  23 37 40.637   -33 13 21.96  1.4254 2.3243 145.8 22.1 970'  64
2023 09 24 19  23 37 36.387   -33 13 09.63  1.4254 2.3242 145.7 22.1 971'  64
2023 09 24 20  23 37 32.139   -33 12 57.25  1.4254 2.3241 145.7 22.1 971'  64
2023 09 24 21  23 37 27.891   -33 12 44.82  1.4254 2.3239 145.7 22.1 971'  64
2023 09 24 22  23 37 23.645   -33 12 32.35  1.4255 2.3238 145.7 22.1 972'  65
2023 09 24 23  23 37 19.400   -33 12 19.83  1.4255 2.3237 145.7 22.1 972'  65
2023 09 25 00  23 37 15.156   -33 12 07.26  1.4255 2.3236 145.6 22.1 972'  65
2023 09 25 01  23 37 10.913   -33 11 54.65  1.4255 2.3234 145.6 22.1 972'  65
2023 09 25 02  23 37 06.671   -33 11 41.99  1.4256 2.3233 145.6 22.1 973'  65
2023 09 25 03  23 37 02.430   -33 11 29.29  1.4256 2.3232 145.6 22.1 973'  65
2023 09 25 04  23 36 58.191   -33 11 16.54  1.4256 2.3231 145.5 22.1 973'  65
2023 09 25 05  23 36 53.953   -33 11 03.74  1.4256 2.3229 145.5 22.1 974'  65
2023 09 25 06  23 36 49.716   -33 10 50.90  1.4257 2.3228 145.5 22.1 974'  65
2023 09 25 07  23 36 45.480   -33 10 38.02  1.4257 2.3227 145.5 22.1 974'  65
2023 09 25 08  23 36 41.245   -33 10 25.08  1.4257 2.3226 145.5 22.1 974'  66
2023 09 25 09  23 36 37.012   -33 10 12.10  1.4257 2.3225 145.4 22.1 975'  66
2023 09 25 10  23 36 32.780   -33 09 59.08  1.4258 2.3223 145.4 22.1 975'  66
2023 09 25 11  23 36 28.549   -33 09 46.01  1.4258 2.3222 145.4 22.1 975'  66